Evansville, IN

6:56 AM CDT on October 20, 2019 (GMT -0500)
Evansville Regional

Weather History for KEVV - September, 2019

Change the Weather History Date:

Tuesday, September 17, 2019

  Actual Average Record
Temperature  
Mean Temperature 80 °F 69 °F  
Max Temperature 91 °F 81 °F 96 °F (1927)
Min Temperature 67 °F 56 °F 44 °F (1961)
Degree Days  
Heating Degree Days 0 1  
Month to date heating degree days 0 7  
Since 1 July heating degree days 0 8  
Cooling Degree Days 14 5  
Month to date cooling degree days 196 123  
Year to date cooling degree days 1449 1322  
Growing Degree Days 30 (Base 50)    
Moisture  
Dew Point 65 °F    
Average Humidity 66    
Maximum Humidity 90    
Minimum Humidity 41    
Precipitation  
Precipitation 0.00 in 0.10 in 2.37 in (2012)
Month to date precipitation 0.01 1.73  
Year to date precipitation 46.01 32.65  
Snow  
Snow 0.00 in 0.00 in 0.00 in ()
Month to date snowfall 0.0 0.0  
Since 1 July snowfall 0.0 0.0  
Since 1 September snowfall 0.0 0.0  
Snow Depth 0.00 in    
Sea Level Pressure  
Sea Level Pressure 30.05 in    
Wind  
Wind Speed 5 mph ()    
Max Wind Speed 14 mph    
Max Gust Speed 18 mph    
Visibility 9.8 miles    
Events      
T = Trace of Precipitation, MM = Missing Value Source: Averaged Metar Reports

Daily Weather History Graph

Daily Weather History Graph

Search for Another Location

Airport or City:

Astronomy

Sep. 17, 2019 Rise Set
Actual Time 6:33 AM CDT 6:55 PM CDT
Civil Twilight 6:07 AM CDT 7:21 PM CDT
Nautical Twilight 5:36 AM CDT 7:52 PM CDT
Astronomical Twilight 5:04 AM CDT 8:24 PM CDT
Moon 9:01 PM CDT (9/17) 9:35 AM CDT (9/17)
Length of Visible Light 13h 14m
Length of Day
12h 21m
Waning Gibbous, 89% of the Moon is Illuminated
Sep 17
Waning Gibbous
Sep 21
Last Quarter
Sep 28
New
Oct 5
First Quarter
Oct 13
Full

Hourly Weather History & Observations

Time (CDT) Temp. Heat Index Dew Point Humidity Pressure Visibility Wind Dir Wind Speed Gust Speed Precip Events Conditions
3:54 AM 72.0 °F - 66.9 °F 84% 30.03 in 9.0 mi North 3.5 mph - N/A   Clear
4:54 AM 71.1 °F - 66.9 °F 87% 30.04 in 9.0 mi North 4.6 mph - N/A   Clear
5:54 AM 71.1 °F - 66.9 °F 87% 30.05 in 9.0 mi North 5.8 mph - N/A   Partly Cloudy
6:54 AM 70.0 °F - 66.0 °F 87% 30.06 in 10.0 mi NNE 4.6 mph - N/A   Partly Cloudy
7:54 AM 73.0 °F - 66.9 °F 81% 30.08 in 9.0 mi NNE 5.8 mph - N/A   Partly Cloudy
8:54 AM 77.0 °F - 66.9 °F 71% 30.09 in 10.0 mi NE 6.9 mph - N/A   Clear
9:54 AM 80.1 °F 82.3 °F 66.9 °F 64% 30.09 in 10.0 mi East 6.9 mph - N/A   Clear
10:54 AM 84.0 °F 86.3 °F 66.0 °F 55% 30.08 in 10.0 mi ENE 4.6 mph - N/A   Clear
11:54 AM 87.1 °F 88.9 °F 64.9 °F 48% 30.07 in 10.0 mi NNE 8.1 mph - N/A   Mostly Cloudy
12:54 PM 89.1 °F 90.3 °F 64.0 °F 43% 30.06 in 10.0 mi NE 10.4 mph - N/A   Scattered Clouds
1:54 PM 88.0 °F 88.7 °F 63.0 °F 43% 30.04 in 10.0 mi East 6.9 mph - N/A   Scattered Clouds
2:54 PM 89.1 °F 90.0 °F 63.0 °F 42% 30.03 in 10.0 mi East 5.8 mph - N/A   Scattered Clouds
5:54 PM 84.9 °F 85.9 °F 63.0 °F 48% 30.01 in 10.0 mi North 4.6 mph - N/A   Clear
6:54 PM 81.0 °F 82.7 °F 64.9 °F 58% 30.01 in 10.0 mi North 4.6 mph - N/A   Clear
7:54 PM 75.0 °F - 64.0 °F 69% 30.01 in 10.0 mi NE 5.8 mph - N/A   Clear
8:54 PM 73.0 °F - 63.0 °F 71% 30.02 in 10.0 mi NE 5.8 mph - N/A   Clear
9:54 PM 72.0 °F - 62.1 °F 71% 30.04 in 10.0 mi NNE 5.8 mph - N/A   Clear
10:54 PM 72.0 °F - 62.1 °F 71% 30.04 in 10.0 mi NNE 5.8 mph - N/A   Clear
11:54 PM 69.1 °F - 62.1 °F 78% 30.04 in 10.0 mi NNE 5.8 mph - N/A   Clear